Theta_e
327 328 326 322 322 322 319 317 316 318 322 325 326 324 322 322 323 322 320 320 322 324 326 326 323 320 320 321 323 324 324 323 324 325 326 325 325 325 325 325 326 326
326 327 325 323 322 321 319 317 316 316 318 319 320 320 321 321 322 321 319 320 322 323 324 324 322 320 320 321 322 322 323 323 323 325 326 325 324 324 324 325 326 327
325 326 324 322 320 319 318 317 316 316 316 316 317 318 319 320 320 320 319 320 322 321 322 322 321 321 321 321 322 322 322 323 323 325 326 325 324 324 325 326 327 328
327 328 328 325 323 322 319 317 315 315 315 316 317 317 318 318 319 319 319 320 320 321 321 321 321 320 321 321 321 321 321 322 322 323 324 325 325 325 326 327 328 328
327 329 331 331 331 329 323 317 316 316 316 316 317 317 317 318 318 318 319 320 320 321 321 321 321 322 322 321 320 319 319 320 321 323 324 325 325 325 325 326 327 327
327 326 328 332 335 332 324 318 317 315 315 316 317 317 317 317 318 319 320 321 322 322 322 323 324 324 323 322 321 321 321 321 322 324 326 326 326 325 326 326 326 327
326 323 326 332 337 334 324 319 317 315 315 317 316 317 318 319 320 322 323 324 324 324 325 325 325 325 323 322 323 323 323 323 325 326 327 327 327 327 326 326 327 326
326 326 327 334 342 338 326 318 316 315 316 317 317 317 319 321 323 324 326 326 326 326 326 326 326 325 325 325 325 325 324 325 326 327 327 327 326 326 326 327 327 324
327 327 327 335 342 337 325 319 316 316 318 317 317 318 321 323 325 326 327 327 327 327 327 326 326 325 325 326 325 325 325 326 327 327 326 326 326 326 327 327 325 322
327 329 332 339 342 334 324 320 317 316 317 317 317 319 322 325 326 327 328 328 328 327 327 326 325 324 324 324 324 325 326 327 327 327 326 325 326 326 325 324 322 321
327 334 342 345 343 333 324 320 317 318 321 321 319 319 323 326 327 328 328 328 327 326 326 326 325 324 324 324 325 326 326 327 327 326 325 325 326 325 322 321 322 323
330 342 347 347 344 333 323 320 318 322 328 327 321 319 323 327 327 328 328 327 325 326 326 325 324 324 324 324 325 325 325 325 325 324 324 325 325 324 322 322 324 324
340 346 346 347 344 333 324 321 320 326 333 327 320 320 324 326 328 328 328 326 325 325 325 323 322 323 324 323 323 323 322 322 322 322 323 324 324 322 322 323 325 325
346 347 344 343 343 337 328 321 322 332 334 324 319 322 323 326 328 328 327 326 325 324 323 322 322 323 322 322 321 320 319 320 320 321 322 323 322 322 322 324 325 326
347 347 344 343 345 342 331 322 326 335 331 320 319 322 323 326 328 328 327 326 325 324 322 322 322 322 321 320 320 320 320 320 320 321 321 321 322 322 324 325 326 326
347 347 346 345 346 342 332 328 333 334 327 320 320 322 323 326 327 327 327 325 325 325 323 322 322 322 322 321 321 321 321 322 322 322 322 322 322 323 325 325 326 326
347 347 346 345 344 339 334 336 336 330 323 320 320 322 325 326 327 327 325 324 325 324 322 322 322 322 323 323 323 323 323 323 323 324 324 324 324 324 325 325 326 326
348 347 346 344 341 336 335 337 334 327 323 321 320 322 326 327 327 326 324 324 324 323 322 322 322 322 324 325 325 326 326 326 326 325 325 325 325 325 325 326 326 326
348 346 344 342 338 335 336 337 335 331 326 321 320 323 327 328 328 326 324 324 323 322 321 322 323 323 324 325 327 328 329 330 329 329 328 327 326 326 325 326 326 327
348 345 344 340 337 337 339 339 337 334 326 321 321 323 326 327 327 326 324 322 322 321 321 322 323 323 324 325 327 329 330 331 332 332 331 330 330 328 327 326 327 327
347 345 343 339 337 340 341 339 337 333 324 321 322 323 324 326 325 324 322 321 321 321 322 322 322 323 324 325 327 329 331 332 332 332 332 331 331 330 328 327 327 327
347 345 341 338 339 342 341 337 335 330 323 321 322 322 324 326 325 323 321 320 321 322 323 323 322 323 324 326 327 329 331 331 331 331 330 330 329 328 327 327 327 326
347 343 339 338 339 341 341 338 335 329 324 322 323 324 327 327 325 323 322 321 322 323 323 323 323 324 325 327 329 330 331 331 330 329 329 328 327 327 326 326 326 325
346 342 340 339 338 339 339 338 334 330 327 327 327 328 329 327 325 324 324 324 324 324 324 325 325 325 326 328 329 330 331 330 329 328 328 327 326 325 325 325 325 325
345 342 339 338 338 338 338 337 334 331 331 332 333 333 332 331 329 327 328 328 327 326 326 326 325 326 328 329 330 331 330 328 328 328 327 325 325 325 325 325 325 325
344 340 338 339 339 337 336 334 332 331 332 333 334 334 335 336 335 334 334 334 333 332 330 330 330 330 331 330 331 331 329 327 327 327 325 324 324 324 324 324 324 324
Wind_Speed
23 21 19 17 16 16 16 16 16 17 17 16 15 14 13 11 10 9 9 9 8 7 7 7 8 9 9 9 9 9 8 8 8 7 7 7 7 7 7 7 8 9
24 22 20 19 18 17 17 17 17 17 16 15 15 14 13 12 11 10 10 10 9 8 8 8 9 10 10 10 10 10 10 10 10 10 10 10 10 10 10 10 10 11
27 24 22 21 20 19 18 18 18 18 17 16 16 16 15 14 13 12 11 11 10 9 9 10 11 10 10 10 11 12 11 12 12 12 12 11 11 11 10 10 11 12
28 25 24 22 20 18 18 19 19 19 18 18 18 17 16 15 14 13 13 13 12 11 10 10 10 9 10 10 11 12 12 12 12 12 12 11 10 10 10 11 12 12
28 25 25 24 21 19 19 20 20 20 20 19 18 17 16 15 14 14 14 14 13 12 11 10 9 9 10 10 10 10 11 11 11 11 11 10 10 10 11 11 12 13
28 27 27 26 22 20 19 20 20 21 20 19 18 17 16 15 15 15 15 15 13 12 10 9 9 10 10 10 10 10 10 10 9 9 10 11 11 11 11 12 14 14
31 30 30 28 24 21 20 20 21 21 19 18 18 17 16 16 16 16 16 15 13 12 10 9 9 9 10 10 10 10 9 8 8 9 11 12 13 13 13 14 15 15
35 34 32 29 26 22 20 21 22 19 16 17 18 17 16 17 17 17 16 15 13 12 10 10 9 9 10 11 11 10 9 8 9 11 13 14 14 14 14 14 15 14
40 37 33 31 27 22 20 22 20 17 16 17 17 17 17 17 17 17 16 14 13 12 11 10 10 10 11 11 11 10 9 10 11 12 14 14 14 15 14 13 13 12
44 41 37 33 29 24 23 23 19 17 16 16 17 18 19 19 18 17 16 15 14 12 11 11 10 10 11 12 12 12 11 12 12 13 14 14 14 14 13 12 12 12
47 44 40 36 30 26 26 24 20 17 15 16 19 20 20 21 20 19 17 16 15 13 12 11 11 11 12 13 13 13 13 13 13 13 14 14 14 13 12 11 12 14
50 45 42 38 32 28 28 26 22 18 18 21 22 22 23 23 22 21 19 18 16 14 13 12 12 12 13 14 14 14 14 13 13 14 14 15 15 13 12 13 14 16
49 45 43 41 36 34 34 32 28 23 24 25 24 24 25 26 24 22 20 18 16 15 14 14 13 13 14 15 15 14 14 14 14 14 15 15 15 14 14 15 16 17
48 47 48 47 45 44 42 40 35 28 26 26 25 25 28 28 26 23 21 19 17 16 15 15 14 14 14 14 14 14 14 14 14 15 16 16 15 15 16 17 17 18
47 51 54 52 51 50 48 45 38 29 27 28 27 27 29 29 26 24 22 21 19 18 17 17 16 14 13 13 13 13 13 13 13 14 15 15 16 16 17 18 18 20
48 51 53 52 52 54 53 46 36 29 29 30 29 28 30 30 28 26 25 23 21 20 19 19 17 15 13 13 13 12 12 12 12 13 14 15 16 17 18 19 20 22
49 50 51 51 54 56 53 42 31 29 31 32 31 30 30 30 29 28 26 24 22 21 21 20 19 17 16 14 13 13 13 13 14 15 16 17 18 19 20 21 22 23
49 50 50 51 53 52 45 34 28 29 32 34 34 32 31 31 31 30 27 25 23 22 21 20 19 19 18 16 15 15 15 16 17 18 19 20 20 21 22 23 24 25
48 48 47 49 50 46 37 30 28 29 33 35 35 33 32 32 32 31 28 26 24 23 22 21 19 19 18 17 16 16 16 18 20 21 22 23 24 24 24 25 27 27
46 46 46 49 48 41 35 33 31 31 34 35 34 33 33 33 32 32 29 26 25 24 22 21 19 18 17 16 17 17 17 19 21 23 24 25 26 27 26 27 28 29
46 47 49 50 44 35 33 34 32 33 35 35 35 34 33 32 32 31 29 26 25 24 23 22 20 18 18 17 17 17 18 20 23 24 24 25 27 27 26 27 28 29
46 47 48 47 39 32 32 32 32 35 35 34 35 34 33 32 32 31 29 27 26 25 25 24 22 20 19 18 18 18 20 22 23 23 24 24 24 23 24 25 27 28
46 46 47 46 38 31 30 30 32 35 35 34 35 34 32 32 31 31 30 28 27 26 26 26 24 21 21 21 20 21 22 22 23 23 22 21 20 19 20 23 25 27
45 45 46 47 37 27 28 30 31 35 36 36 35 33 31 31 30 30 31 29 28 27 26 25 24 22 23 24 23 23 22 21 22 22 20 19 18 18 20 22 24 26
44 44 46 45 30 20 25 29 30 34 36 36 35 34 33 31 30 31 31 30 29 28 27 26 25 26 28 28 26 24 22 20 21 20 18 17 17 18 20 22 24 25
42 42 46 43 26 18 24 28 29 31 33 33 34 35 35 35 34 35 34 33 32 31 30 29 28 27 26 25 24 25 23 20 19 18 17 16 17 19 21 22 23 24
Wind_Direction
218 219 222 227 233 237 238 239 242 246 248 249 253 255 251 246 247 250 245 237 233 232 243 261 262 256 251 247 246 245 244 247 248 253 262 269 276 279 281 281 281 284
217 218 221 225 229 233 236 237 239 242 244 247 249 248 244 244 247 246 239 231 228 234 246 254 252 249 249 251 252 252 252 253 252 255 262 268 275 279 284 286 287 288
216 218 220 222 225 229 233 234 235 236 239 241 240 239 239 241 244 242 235 231 231 234 239 242 242 244 248 251 254 256 258 258 257 259 265 271 277 281 284 286 287 287
218 222 225 227 229 232 235 235 232 232 234 235 235 235 235 236 238 237 234 232 230 229 232 235 239 246 253 254 256 260 262 263 263 264 268 272 275 279 283 284 286 288
219 224 231 234 235 238 240 237 234 231 230 231 233 234 233 233 233 232 229 228 225 225 229 235 245 254 259 259 259 263 264 265 264 263 265 267 270 276 282 285 289 293
218 221 228 233 235 238 241 241 238 232 228 230 233 234 233 230 229 226 224 221 219 221 227 235 248 254 254 253 254 260 262 260 257 257 263 269 274 279 285 289 291 292
218 219 224 229 233 235 237 238 237 232 229 230 232 233 231 227 224 221 217 215 214 217 224 233 243 248 247 245 250 256 256 250 251 259 269 275 281 286 289 289 288 290
218 221 225 228 230 233 236 236 235 233 233 235 236 234 228 223 220 216 211 209 211 216 223 230 238 242 242 243 248 251 249 249 258 267 275 280 284 289 291 287 287 292
220 221 223 225 224 227 236 238 235 233 234 236 240 237 228 221 216 212 208 208 212 218 224 230 237 239 240 243 246 249 251 256 264 272 279 283 286 288 289 286 287 293
222 221 221 222 219 217 225 233 232 228 230 236 242 240 230 220 215 211 210 211 215 219 225 231 238 240 241 245 249 253 258 263 270 277 281 280 282 284 285 284 286 294
224 224 220 218 217 214 218 224 220 219 234 246 246 241 231 221 217 215 215 216 218 221 226 232 239 244 247 250 254 258 263 269 275 278 276 272 274 277 279 282 290 299
225 224 217 214 215 216 216 213 206 217 247 251 241 237 233 224 220 220 220 220 222 224 228 234 240 246 250 254 258 262 266 271 275 275 271 268 269 271 276 285 295 301
224 218 215 215 215 215 216 210 207 226 246 239 230 234 234 227 223 223 223 224 225 227 230 236 241 246 251 255 259 263 267 269 270 269 268 268 270 273 279 288 295 300
221 217 221 221 216 216 217 211 212 231 240 226 221 230 232 228 226 225 225 226 228 230 233 236 241 246 251 255 257 260 264 265 266 266 267 270 274 279 283 287 291 295
221 220 225 223 217 216 214 208 214 231 233 220 218 226 230 229 228 227 227 228 229 232 234 236 240 243 247 251 252 255 260 264 266 267 269 273 277 280 285 287 290 293
225 225 226 222 218 215 210 209 217 227 223 217 217 222 228 229 227 227 227 227 230 233 235 237 239 240 242 243 245 251 258 263 266 268 271 274 275 279 284 287 290 292
229 228 226 222 218 213 209 211 218 218 215 215 216 220 226 228 228 228 227 227 230 233 236 240 241 241 241 241 242 246 252 258 264 269 271 272 273 276 282 286 288 291
231 229 226 223 218 212 208 211 216 215 214 216 216 218 223 227 229 230 228 229 231 233 237 241 243 244 244 245 246 247 250 257 264 268 270 272 274 277 281 284 286 289
232 228 224 220 214 210 210 216 222 218 215 216 216 217 221 226 230 231 229 230 232 234 237 241 242 243 244 247 251 253 256 261 266 269 271 274 276 277 280 283 286 289
229 225 222 216 209 208 218 228 230 221 214 215 217 218 221 224 228 230 230 229 232 235 237 239 241 240 241 246 253 258 263 267 269 271 273 275 277 277 278 281 285 289
227 225 221 212 205 212 227 233 231 220 210 211 217 219 220 223 226 229 229 229 232 235 236 237 237 236 240 247 255 263 269 271 272 272 274 276 278 279 281 283 286 289
231 225 215 204 204 222 233 230 225 217 208 209 217 219 220 224 226 228 230 231 234 236 237 237 236 237 242 250 258 266 271 272 273 274 275 277 280 282 285 286 288 290
230 221 210 202 207 227 234 228 221 213 208 211 217 220 222 225 228 230 232 234 236 238 240 240 241 245 250 256 262 267 269 272 275 275 275 277 281 285 287 287 288 289
225 218 212 207 210 226 236 231 219 211 211 215 220 224 226 227 230 234 236 238 239 241 243 245 247 249 253 258 261 262 266 273 276 275 276 280 286 288 287 286 287 289
224 218 213 210 213 228 230 223 214 211 216 221 225 230 232 232 236 239 242 244 245 245 247 248 250 254 258 261 260 259 268 277 276 275 280 287 289 287 284 285 286 288
219 214 211 212 220 229 218 211 210 215 221 226 230 234 236 239 241 244 248 251 252 252 252 253 256 260 261 259 259 265 275 280 276 276 283 286 285 283 282 284 286 288